�������l�o���
Date,Time,MP-1(��Sv/h),MP-2(��Sv/h),MP-3(��Sv/h),MP-4(��Sv/h),MP-5(��Sv/h),MP-6(��Sv/h),MP-7(��Sv/h),MP-8(��Sv/h),����,����(m/s),���J
2019/03/26,00:00,0.785,1.156,0.791,1.469,1.064,0.445,0.783,0.743,���k��,0.6,��
2019/03/26,00:10,0.786,1.156,0.794,1.469,1.065,0.445,0.785,0.741,�k�k��,0.6,��
2019/03/26,00:20,0.783,1.155,0.791,1.469,1.066,0.445,0.785,0.742,�k,1.5,��
2019/03/26,00:30,0.786,1.156,0.794,1.469,1.066,0.446,0.786,0.742,�k�k��,4.7,��
2019/03/26,00:40,0.785,1.156,0.792,1.472,1.067,0.445,0.786,0.741,�k��,5.0,��
2019/03/26,00:50,0.783,1.155,0.793,1.469,1.066,0.446,0.785,0.741,�k�k��,3.9,��
2019/03/26,01:00,0.783,1.156,0.792,1.466,1.064,0.444,0.785,0.740,�k�k��,1.9,��
2019/03/26,01:10,0.783,1.154,0.793,1.470,1.065,0.445,0.784,0.742,�k,2.9,��
2019/03/26,01:20,0.784,1.155,0.791,1.469,1.064,0.445,0.785,0.742,�k,3.1,��
2019/03/26,01:30,0.784,1.154,0.790,1.469,1.065,0.444,0.786,0.743,�k�k��,2.2,��
2019/03/26,01:40,0.784,1.152,0.792,1.470,1.063,0.444,0.784,0.743,�k�k��,2.8,��
2019/03/26,01:50,0.783,1.156,0.792,1.468,1.065,0.444,0.785,0.743,�k�k��,4.1,��
2019/03/26,02:00,0.785,1.154,0.792,1.470,1.064,0.445,0.786,0.742,�k�k��,4.6,��
2019/03/26,02:10,0.783,1.155,0.793,1.471,1.064,0.445,0.786,0.742,�k��,8.1,��
2019/03/26,02:20,0.787,1.155,0.793,1.472,1.067,0.446,0.785,0.740,�k��,7.5,��
2019/03/26,02:30,0.784,1.156,0.793,1.472,1.064,0.444,0.786,0.742,�k��,6.2,��
2019/03/26,02:40,0.781,1.155,0.793,1.471,1.065,0.445,0.784,0.742,�k�k��,3.6,��
2019/03/26,02:50,0.784,1.156,0.791,1.469,1.065,0.444,0.785,0.743,�k�k��,4.4,��
2019/03/26,03:00,0.787,1.154,0.793,1.472,1.062,0.444,0.784,0.742,�k��,4.8,��
2019/03/26,03:10,0.784,1.152,0.793,1.472,1.066,0.444,0.786,0.742,���k��,4.4,��
2019/03/26,03:20,0.782,1.155,0.793,1.468,1.066,0.445,0.786,0.743,���k��,5.4,��
2019/03/26,03:30,0.783,1.154,0.791,1.473,1.065,0.445,0.785,0.742,���k��,4.9,��
2019/03/26,03:40,0.784,1.156,0.794,1.471,1.065,0.445,0.783,0.741,���k��,4.3,��
2019/03/26,03:50,0.782,1.157,0.791,1.471,1.064,0.446,0.786,0.744,���k��,4.1,��
2019/03/26,04:00,0.783,1.156,0.792,1.470,1.066,0.444,0.785,0.740,���k��,4.1,��
2019/03/26,04:10,0.783,1.153,0.792,1.471,1.064,0.444,0.784,0.742,���k��,4.6,��
2019/03/26,04:20,0.783,1.156,0.793,1.469,1.065,0.443,0.784,0.742,��,4.8,��
2019/03/26,04:30,0.782,1.156,0.790,1.470,1.064,0.445,0.785,0.742,���k��,5.2,��
2019/03/26,04:40,0.782,1.154,0.792,1.470,1.065,0.445,0.783,0.743,���k��,5.7,��
2019/03/26,04:50,0.782,1.156,0.791,1.468,1.065,0.443,0.783,0.741,���k��,6.1,��
2019/03/26,05:00,0.782,1.155,0.794,1.471,1.066,0.442,0.785,0.742,��,5.7,��
2019/03/26,05:10,0.783,1.154,0.791,1.471,1.064,0.442,0.784,0.741,��,5.8,��
2019/03/26,05:20,0.783,1.153,0.792,1.471,1.066,0.444,0.783,0.743,��,5.7,��
2019/03/26,05:30,0.782,1.154,0.794,1.472,1.064,0.443,0.783,0.741,��,5.0,��
2019/03/26,05:40,0.783,1.153,0.790,1.469,1.062,0.445,0.786,0.742,��,4.3,��
2019/03/26,05:50,0.783,1.153,0.791,1.472,1.065,0.444,0.784,0.742,��,3.9,��
2019/03/26,06:00,0.783,1.153,0.792,1.469,1.064,0.444,0.785,0.742,��,3.6,��
2019/03/26,06:10,0.783,1.154,0.789,1.470,1.064,0.442,0.785,0.742,�쐼,3.5,��
2019/03/26,06:20,0.783,1.153,0.792,1.471,1.063,0.442,0.785,0.742,��쐼,2.0,��
2019/03/26,06:30,0.785,1.156,0.793,1.469,1.065,0.444,0.784,0.741,��쐼,3.0,��
2019/03/26,06:40,0.783,1.154,0.792,1.470,1.066,0.443,0.783,0.741,��,3.5,��
2019/03/26,06:50,0.783,1.154,0.793,1.471,1.067,0.443,0.784,0.743,��쓌,3.8,��
2019/03/26,07:00,0.784,1.154,0.791,1.470,1.064,0.445,0.786,0.740,��,2.9,��
2019/03/26,07:10,0.784,1.154,0.794,1.467,1.065,0.444,0.787,0.744,��,3.9,��
2019/03/26,07:20,0.783,1.153,0.793,1.470,1.064,0.442,0.785,0.743,��,3.8,��
2019/03/26,07:30,0.782,1.155,0.790,1.473,1.064,0.445,0.786,0.740,��,3.4,��
2019/03/26,07:40,0.784,1.155,0.789,1.471,1.065,0.444,0.786,0.743,��쓌,2.6,��
2019/03/26,07:50,0.785,1.157,0.791,1.469,1.064,0.444,0.787,0.741,��쓌,3.3,��
2019/03/26,08:00,0.783,1.156,0.792,1.470,1.064,0.444,0.787,0.741,��쓌,4.5,��
2019/03/26,08:10,0.785,1.153,0.792,1.471,1.062,0.444,0.785,0.743,��쓌,4.1,��
2019/03/26,08:20,0.783,1.155,0.793,1.472,1.065,0.443,0.788,0.742,��쓌,2.8,��
2019/03/26,08:30,0.785,1.151,0.793,1.471,1.067,0.443,0.786,0.744,�쓌,2.3,��
2019/03/26,08:40,0.784,1.154,0.792,1.470,1.067,0.442,0.785,0.745,��쓌,3.5,��
2019/03/26,08:50,0.784,1.155,0.792,1.469,1.065,0.444,0.786,0.745,�쓌,2.9,��
2019/03/26,09:00,0.786,1.153,0.792,1.471,1.066,0.443,0.785,0.743,�쓌,2.5,��
2019/03/26,09:10,0.786,1.149,0.792,1.472,1.066,0.443,0.785,0.742,�쓌,3.4,��
2019/03/26,09:20,0.784,1.150,0.791,1.468,1.067,0.443,0.785,0.743,�쓌,3.9,��
2019/03/26,09:30,0.784,1.151,0.792,1.470,1.067,0.443,0.785,0.741,�쓌,4.1,��
2019/03/26,09:40,0.785,1.152,0.792,1.471,1.066,0.443,0.785,0.740,��쓌,4.5,��
2019/03/26,09:50,0.788,1.150,0.793,1.471,1.066,0.442,0.784,0.741,��쓌,4.0,��
2019/03/26,10:00,0.785,1.151,0.794,1.472,1.067,0.443,0.785,0.740,��쓌,3.9,��
2019/03/26,10:10,0.786,1.150,0.793,1.473,1.063,0.443,0.783,0.741,��쓌,4.4,��
2019/03/26,10:20,0.784,1.148,0.796,1.470,1.066,0.442,0.784,0.741,��쓌,5.0,��
2019/03/26,10:30,0.785,1.153,0.792,1.473,1.063,0.442,0.785,0.742,��쓌,5.3,��
2019/03/26,10:40,0.784,1.152,0.793,1.472,1.064,0.442,0.783,0.740,��쓌,5.8,��
2019/03/26,10:50,0.785,1.154,0.795,1.473,1.062,0.444,0.784,0.738,�쓌,5.7,��
2019/03/26,11:00,0.784,1.157,0.796,1.473,1.067,0.443,0.784,0.740,�쓌,6.0,��
2019/03/26,11:10,0.784,1.155,0.794,1.472,1.065,0.443,0.785,0.740,��쓌,8.0,��
2019/03/26,11:20,0.786,1.155,0.795,1.474,1.065,0.443,0.784,0.741,��쓌,6.5,��
2019/03/26,11:30,0.785,1.154,0.794,1.473,1.064,0.444,0.786,0.740,��쓌,10.5,��
2019/03/26,11:40,0.783,1.157,0.794,1.473,1.065,0.444,0.785,0.739,��쓌,8.8,��
2019/03/26,11:50,0.785,1.155,0.793,1.476,1.065,0.444,0.787,0.742,��쓌,9.9,��
2019/03/26,12:00,0.784,1.156,0.790,1.473,1.064,0.443,0.786,0.742,��쓌,10.7,��
2019/03/26,12:10,0.784,1.155,0.793,1.474,1.068,0.444,0.785,0.741,��쓌,10.9,��
2019/03/26,12:20,0.783,1.156,0.792,1.475,1.067,0.444,0.786,0.740,��쓌,10.2,��
2019/03/26,12:30,0.784,1.155,0.792,1.472,1.067,0.443,0.787,0.741,��쓌,10.2,��
2019/03/26,12:40,0.786,1.157,0.793,1.475,1.066,0.443,0.786,0.740,��쓌,9.0,��
2019/03/26,12:50,0.785,1.155,0.793,1.474,1.066,0.446,0.786,0.741,��쓌,9.6,��
2019/03/26,13:00,0.784,1.155,0.793,1.474,1.067,0.446,0.784,0.740,��쓌,10.9,��
2019/03/26,13:10,0.783,1.152,0.793,1.472,1.068,0.446,0.787,0.741,��,11.6,��
2019/03/26,13:20,0.784,1.157,0.795,1.474,1.066,0.445,0.786,0.741,��쓌,11.3,��
2019/03/26,13:30,0.783,1.153,0.792,1.475,1.067,0.446,0.786,0.740,��쓌,10.2,��
2019/03/26,13:40,0.785,1.155,0.793,1.474,1.066,0.445,0.786,0.741,��쓌,11.8,��
2019/03/26,13:50,0.785,1.153,0.791,1.476,1.068,0.446,0.785,0.741,��쓌,12.0,��
2019/03/26,14:00,0.783,1.154,0.794,1.474,1.069,0.446,0.787,0.740,��쓌,10.0,��
2019/03/26,14:10,0.785,1.153,0.792,1.474,1.067,0.447,0.785,0.741,��쓌,9.9,��
2019/03/26,14:20,0.786,1.152,0.791,1.474,1.067,0.445,0.787,0.740,��쓌,10.2,��
2019/03/26,14:30,0.786,1.156,0.793,1.476,1.067,0.443,0.788,0.741,��쓌,8.8,��
2019/03/26,14:40,0.783,1.151,0.793,1.475,1.069,0.446,0.787,0.743,��쓌,9.0,��
2019/03/26,14:50,0.784,1.155,0.793,1.475,1.068,0.446,0.787,0.743,��쓌,9.1,��
2019/03/26,15:00,0.786,1.156,0.794,1.475,1.067,0.445,0.787,0.742,��,8.1,��
2019/03/26,15:10,0.787,1.158,0.792,1.478,1.069,0.446,0.788,0.742,��쓌,9.3,��
2019/03/26,15:20,0.785,1.160,0.795,1.476,1.069,0.446,0.789,0.741,��쓌,9.3,��
2019/03/26,15:30,0.783,1.159,0.791,1.478,1.068,0.446,0.788,0.742,��쓌,9.1,��
2019/03/26,15:40,0.787,1.158,0.793,1.477,1.068,0.447,0.787,0.740,��쓌,8.8,��
2019/03/26,15:50,0.784,1.159,0.793,1.476,1.070,0.445,0.787,0.742,��쓌,8.8,��
2019/03/26,16:00,0.784,1.156,0.794,1.475,1.069,0.448,0.787,0.743,��쓌,8.4,��
2019/03/26,16:10,0.784,1.158,0.794,1.475,1.070,0.448,0.785,0.741,��쓌,9.1,��
2019/03/26,16:20,0.789,1.157,0.793,1.476,1.069,0.448,0.787,0.742,��쓌,8.1,��
2019/03/26,16:30,0.786,1.163,0.793,1.477,1.069,0.447,0.786,0.743,��쓌,9.2,��
2019/03/26,16:40,0.786,1.161,0.794,1.476,1.070,0.448,0.787,0.742,��,8.8,��
2019/03/26,16:50,0.784,1.161,0.794,1.476,1.069,0.448,0.787,0.742,��쓌,8.4,��
2019/03/26,17:00,0.786,1.162,0.793,1.475,1.069,0.447,0.786,0.743,��,6.4,��
2019/03/26,17:10,0.785,1.159,0.795,1.473,1.070,0.448,0.787,0.745,��쓌,6.2,��
2019/03/26,17:20,0.785,1.164,0.791,1.475,1.068,0.448,0.784,0.743,��쓌,5.8,��
2019/03/26,17:30,0.786,1.163,0.793,1.472,1.067,0.449,0.786,0.744,��쓌,5.7,��
2019/03/26,17:40,0.790,1.166,0.794,1.472,1.067,0.448,0.786,0.744,��쓌,4.8,��
2019/03/26,17:50,0.788,1.162,0.796,1.474,1.068,0.449,0.786,0.745,��쓌,0.6,��
2019/03/26,18:00,0.787,1.162,0.797,1.473,1.067,0.447,0.788,0.745,�k,0.6,��
2019/03/26,18:10,0.788,1.161,0.795,1.475,1.068,0.449,0.788,0.743,�k�k��,1.2,��
2019/03/26,18:20,0.787,1.161,0.796,1.475,1.071,0.448,0.787,0.743,�k��,2.6,��
2019/03/26,18:30,0.790,1.162,0.796,1.471,1.068,0.449,0.788,0.745,�k�k��,4.1,��
2019/03/26,18:40,0.789,1.161,0.796,1.476,1.068,0.447,0.788,0.744,�k�k��,6.0,��
2019/03/26,18:50,0.787,1.157,0.795,1.475,1.068,0.448,0.787,0.743,�k�k��,5.3,��
2019/03/26,19:00,0.788,1.161,0.797,1.475,1.069,0.447,0.790,0.745,�k�k��,5.2,��
2019/03/26,19:10,0.788,1.162,0.796,1.475,1.068,0.447,0.789,0.744,�k�k��,5.2,��
2019/03/26,19:20,0.788,1.157,0.796,1.476,1.069,0.447,0.790,0.744,�k,6.7,��
2019/03/26,19:30,0.787,1.162,0.798,1.473,1.073,0.446,0.790,0.743,�k�k��,7.4,��
2019/03/26,19:40,0.789,1.162,0.796,1.476,1.072,0.446,0.787,0.746,�k�k��,7.0,��
2019/03/26,19:50,0.787,1.161,0.796,1.476,1.069,0.448,0.787,0.744,�k�k��,6.0,��
2019/03/26,20:00,0.787,1.158,0.798,1.474,1.068,0.447,0.789,0.744,�k�k��,4.7,��
2019/03/26,20:10,0.784,1.159,0.796,1.474,1.069,0.446,0.787,0.743,�k�k��,4.7,��
2019/03/26,20:20,0.786,1.159,0.797,1.477,1.069,0.446,0.788,0.742,�k��,6.6,��
2019/03/26,20:30,0.785,1.161,0.796,1.473,1.069,0.444,0.788,0.743,�k��,7.6,��
2019/03/26,20:40,0.788,1.159,0.795,1.476,1.070,0.446,0.788,0.744,�k��,6.0,��
2019/03/26,20:50,0.786,1.161,0.794,1.475,1.071,0.446,0.789,0.744,�k��,7.3,��
2019/03/26,21:00,0.787,1.160,0.795,1.473,1.070,0.445,0.787,0.744,�k��,6.1,��
2019/03/26,21:10,0.787,1.160,0.793,1.477,1.070,0.446,0.784,0.744,�k��,6.8,��
2019/03/26,21:20,0.786,1.160,0.794,1.473,1.070,0.444,0.787,0.743,�k��,7.0,��
2019/03/26,21:30,0.786,1.158,0.797,1.477,1.070,0.445,0.786,0.744,�k��,6.7,��
2019/03/26,21:40,0.789,1.158,0.797,1.474,1.070,0.443,0.785,0.745,�k��,8.6,��
2019/03/26,21:50,0.787,1.160,0.794,1.475,1.066,0.445,0.786,0.745,�k��,9.5,��
2019/03/26,22:00,0.787,1.160,0.795,1.474,1.072,0.446,0.786,0.744,�k��,10.5,��
2019/03/26,22:10,0.787,1.158,0.793,1.476,1.067,0.444,0.785,0.743,�k��,9.3,��
2019/03/26,22:20,0.786,1.156,0.794,1.474,1.070,0.444,0.787,0.741,�k��,9.1,��
2019/03/26,22:30,0.787,1.159,0.795,1.477,1.070,0.444,0.784,0.743,�k��,7.0,��
2019/03/26,22:40,0.786,1.158,0.794,1.477,1.068,0.445,0.784,0.743,�k��,7.5,��
2019/03/26,22:50,0.787,1.162,0.797,1.478,1.067,0.444,0.785,0.743,�k��,8.1,��
2019/03/26,23:00,0.786,1.159,0.796,1.476,1.069,0.445,0.786,0.744,�k��,8.8,��
2019/03/26,23:10,0.785,1.159,0.796,1.476,1.068,0.444,0.785,0.744,�k��,10.6,��
2019/03/26,23:20,0.785,1.158,0.794,1.474,1.070,0.442,0.785,0.742,�k��,8.2,��
2019/03/26,23:30,0.786,1.158,0.796,1.478,1.069,0.442,0.785,0.744,�k��,9.0,��
2019/03/26,23:40,0.785,1.159,0.794,1.478,1.067,0.444,0.786,0.743,�k��,8.3,��
2019/03/26,23:50,0.786,1.162,0.794,1.477,1.069,0.443,0.785,0.743,�k��,9.8,��
